Tracking 32938 objects as of 13-Jan-2026
HD Live streaming from Space Station
objects crossing your sky now

INTELSAT 33E DEB

Track INTELSAT 33E DEB now!


NORAD ID: 62000
Int'l Code: 2016-053S
Perigee: 35,576.6 km
Apogee: 36,086.3 km
Inclination: 1.3 °
Period: 1,438.0 minutes
Semi major axis: 42202 km
RCS: Unknown
Launch date: August 24, 2016
Source: International Telecommunications Satellite Organization (ITSO)
Launch site: FRENCH GUIANA (FRGUI)

Note: This is SATELLITE DEBRIS
Your satellite tracking list
Your tracking list is empty




NASA's NSSDC Master Catalog

Two Line Element Set (TLE):
1 62000U 16053S   26011.36958912  .00000148  00000-0  00000-0 0  9999
2 62000   1.3050  96.7220 0060389 272.4382  86.1353  1.00137489  4518
Source of the keplerian elements: AFSPC